Погода в Селезяне

Россия / Челябинская область     54°54′34″N   61°49′26″E
темп.,
°C
ветер,
м/с
пор.,
м/с
влажн.,
%
обл.,
%
осадки,
мм/ч
давл.,
гПа
погр.,
м
17 мая, пн
пн1723:00+19з476217 1.6 1019110
02:00+19зсз475491 0.0 101994
05:00+18юз335876 0.0 102030
08:00+24зюз34392 0.0 1019188
11:00+30зюз47235 0.0 10182766
14:00+31зсз9822100 0.0 10183653
17:00+20ююв4658100 1.5 1019167
20:00+22ю6114811 0.4 1016167
18 мая, вт
вт1823:00+20з474832 0.4 101791
02:00+16в227343 0.0 101722
05:00+16зюз446899 0.1 101659
08:00+21з51354100 0.9 1015409
11:00+25сз794493 0.9 10151177
14:00+27сз68301 0.0 10142677
17:00+27ссз672969 0.0 10132686
20:00+19ссв8116251 0.0 1017852
19 мая, ср
ср1923:00+15ссв7127414 0.2 1020691
02:00+12ссв5117221 0.0 1021503
05:00+13св6970100 0.0 1022696
08:00+14св68625 0.0 1024910
11:00+17св67435 0.0 10241386
14:00+20св56380 0.0 10241603
17:00+20св55365 0.0 10231731
20:00+17всв3449100 0.0 102372
20 мая, чт
чт2023:00+14всв225428 0.0 102516
02:00+12в116078 0.0 102510
05:00+11юз11626 0.0 102610
08:00+16зюз22485 0.0 1026303
11:00+21юз22366 0.0 10251350
14:00+23юз33315 0.0 10241713
17:00+24юз33295 0.0 10231616
20:00+21юз22400 0.0 102213
21 мая, пт
пт2123:00+17ююз22440 0.0 102211
02:00+14зюз33473 0.0 102231
05:00+13юз33505 0.0 102326
08:00+19юз35415 0.0 1023257
11:00+23юз563193 0.0 10221381
14:00+25ююз562794 0.0 10211891
17:00+26юз56255 0.0 10202171
20:00+22ююз33391 0.0 102023